Year,Month,Day,Hour,Minute,Value (Times are PST for windspeed in km/hr)
2010,01,18,00,00,17.30
2010,01,18,00,01,15.60
2010,01,18,00,02,13.80
2010,01,18,00,03,15.00
2010,01,18,00,04,23.90
2010,01,18,00,05,19.60
2010,01,18,00,06,13.40
2010,01,18,00,07,17.30
2010,01,18,00,08,14.10
2010,01,18,00,09,16.70
2010,01,18,00,10,16.70
2010,01,18,00,11,18.40
2010,01,18,00,12,21.00
2010,01,18,00,13,17.60
2010,01,18,00,14,24.20
2010,01,18,00,15,26.10
2010,01,18,00,16,20.30
2010,01,18,00,17,25.50
2010,01,18,00,18,23.00
2010,01,18,00,19,25.40
2010,01,18,00,20,20.50
2010,01,18,00,21,18.70
2010,01,18,00,22,20.60
2010,01,18,00,23,20.60
2010,01,18,00,24,18.80
2010,01,18,00,25,15.20
2010,01,18,00,26,15.20
2010,01,18,00,27,22.50
2010,01,18,00,28,20.20
2010,01,18,00,29,24.00
2010,01,18,00,30,22.50
2010,01,18,00,31,23.20
2010,01,18,00,32,24.00
2010,01,18,00,33,19.10
2010,01,18,00,34,23.60
2010,01,18,00,35,26.80
2010,01,18,00,36,28.80
2010,01,18,00,37,28.70
2010,01,18,00,38,24.50
2010,01,18,00,39,25.50
2010,01,18,00,40,17.60
2010,01,18,00,41,20.00
2010,01,18,00,42,20.60
2010,01,18,00,43,17.50
2010,01,18,00,44,18.60
2010,01,18,00,45,20.60
2010,01,18,00,46,16.80
2010,01,18,00,47,21.30
2010,01,18,00,48,19.30
2010,01,18,00,49,17.80
2010,01,18,00,50,21.70
2010,01,18,00,51,29.90
2010,01,18,00,52,28.60
2010,01,18,00,53,26.70
2010,01,18,00,54,26.30
2010,01,18,00,55,25.30
2010,01,18,00,56,19.00
2010,01,18,00,57,25.10
2010,01,18,00,58,27.60
2010,01,18,00,59,23.90
2010,01,18,01,00,22.50
2010,01,18,01,01,29.40
2010,01,18,01,02,22.90
2010,01,18,01,03,26.00
2010,01,18,01,04,22.70
2010,01,18,01,05,23.10
2010,01,18,01,06,23.60
2010,01,18,01,07,22.00
2010,01,18,01,08,30.60
2010,01,18,01,09,19.80
2010,01,18,01,10,22.50
2010,01,18,01,11,19.10
2010,01,18,01,12,22.00
2010,01,18,01,13,19.50
2010,01,18,01,14,20.50
2010,01,18,01,15,15.40
2010,01,18,01,16,20.30
2010,01,18,01,17,24.40
2010,01,18,01,18,21.40
2010,01,18,01,19,14.60
2010,01,18,01,20,18.10
2010,01,18,01,21,15.40
2010,01,18,01,22,16.60
2010,01,18,01,23,20.00
2010,01,18,01,24,21.30
2010,01,18,01,25,16.50
2010,01,18,01,26,26.80
2010,01,18,01,27,24.60
2010,01,18,01,28,22.80
2010,01,18,01,29,27.30
2010,01,18,01,30,19.90
2010,01,18,01,31,26.80
2010,01,18,01,32,21.60
2010,01,18,01,33,29.80
2010,01,18,01,34,36.60
2010,01,18,01,35,32.80
2010,01,18,01,36,30.20
2010,01,18,01,37,29.70
2010,01,18,01,38,34.60
2010,01,18,01,39,29.00
2010,01,18,01,40,28.70
2010,01,18,01,41,29.20
2010,01,18,01,42,27.20
2010,01,18,01,43,29.00
2010,01,18,01,44,30.40
2010,01,18,01,45,31.60
2010,01,18,01,46,27.80
2010,01,18,01,47,36.20
2010,01,18,01,48,26.10
2010,01,18,01,49,28.20
2010,01,18,01,50,36.30
2010,01,18,01,51,34.70
2010,01,18,01,52,31.50
2010,01,18,01,53,34.20
2010,01,18,01,54,33.80
2010,01,18,01,55,37.50
2010,01,18,01,56,37.50
2010,01,18,01,57,36.00
2010,01,18,01,58,31.20
2010,01,18,01,59,29.00
2010,01,18,02,00,28.00
2010,01,18,02,01,43.70
2010,01,18,02,02,43.00
2010,01,18,02,03,30.60
2010,01,18,02,04,33.20
2010,01,18,02,05,33.90
2010,01,18,02,06,38.30
2010,01,18,02,07,33.50
2010,01,18,02,08,20.20
2010,01,18,02,09,41.20
2010,01,18,02,10,45.40
2010,01,18,02,11,37.10
2010,01,18,02,12,34.40
2010,01,18,02,13,30.50
2010,01,18,02,14,40.50
2010,01,18,02,15,30.90
2010,01,18,02,16,31.20
2010,01,18,02,17,28.70
2010,01,18,02,18,18.70
2010,01,18,02,19,27.20
2010,01,18,02,20,26.40
2010,01,18,02,21,30.60
2010,01,18,02,22,21.70
2010,01,18,02,23,31.50
2010,01,18,02,24,23.20
2010,01,18,02,25,31.90
2010,01,18,02,26,33.20
2010,01,18,02,27,27.80
2010,01,18,02,28,38.40
2010,01,18,02,29,29.00
2010,01,18,02,30,40.70
2010,01,18,02,31,31.10
2010,01,18,02,32,20.00
2010,01,18,02,33,28.20
2010,01,18,02,34,22.90
2010,01,18,02,35,21.40
2010,01,18,02,36,26.70
2010,01,18,02,37,19.60
2010,01,18,02,38,32.20
2010,01,18,02,39,36.90
2010,01,18,02,40,32.90
2010,01,18,02,41,28.30
2010,01,18,02,42,40.00
2010,01,18,02,43,35.70
2010,01,18,02,44,33.80
2010,01,18,02,45,39.70
2010,01,18,02,46,30.20
2010,01,18,02,47,35.00
2010,01,18,02,48,36.00
2010,01,18,02,49,35.70
2010,01,18,02,50,36.00
2010,01,18,02,51,47.70
2010,01,18,02,52,36.50
2010,01,18,02,53,29.80
2010,01,18,02,54,52.00
2010,01,18,02,55,31.30
2010,01,18,02,56,29.30
2010,01,18,02,57,33.10
2010,01,18,02,58,39.00
2010,01,18,02,59,42.90
2010,01,18,03,00,31.50
2010,01,18,03,01,29.30
2010,01,18,03,02,37.00
2010,01,18,03,03,32.50
2010,01,18,03,04,31.60
2010,01,18,03,05,33.40
2010,01,18,03,06,39.40
2010,01,18,03,07,33.80
2010,01,18,03,08,33.10
2010,01,18,03,09,45.80
2010,01,18,03,10,40.00
2010,01,18,03,11,30.60
2010,01,18,03,12,31.90
2010,01,18,03,13,29.30
2010,01,18,03,14,29.70
2010,01,18,03,15,24.40
2010,01,18,03,16,29.80
2010,01,18,03,17,34.80
2010,01,18,03,18,33.00
2010,01,18,03,19,32.10
2010,01,18,03,20,26.50
2010,01,18,03,21,27.90
2010,01,18,03,22,27.10
2010,01,18,03,23,31.60
2010,01,18,03,24,32.80
2010,01,18,03,25,27.60
2010,01,18,03,26,30.10
2010,01,18,03,27,41.00
2010,01,18,03,28,34.70
2010,01,18,03,29,39.40
2010,01,18,03,30,36.70
2010,01,18,03,31,32.60
2010,01,18,03,32,33.00
2010,01,18,03,33,33.30
2010,01,18,03,34,36.40
2010,01,18,03,35,30.30
2010,01,18,03,36,32.60
2010,01,18,03,37,33.50
2010,01,18,03,38,36.50
2010,01,18,03,39,36.10
2010,01,18,03,40,30.80
2010,01,18,03,41,36.70
2010,01,18,03,42,33.40
2010,01,18,03,43,30.00
2010,01,18,03,44,32.00
2010,01,18,03,45,27.70
2010,01,18,03,46,37.80
2010,01,18,03,47,25.50
2010,01,18,03,48,33.10
2010,01,18,03,49,18.20
2010,01,18,03,50,22.00
2010,01,18,03,51,29.40
2010,01,18,03,52,37.10
2010,01,18,03,53,40.40
2010,01,18,03,54,29.80
2010,01,18,03,55,28.90
2010,01,18,03,56,29.80
2010,01,18,03,57,35.80
2010,01,18,03,58,38.30
2010,01,18,03,59,39.90
2010,01,18,04,00,32.00
2010,01,18,04,01,42.20
2010,01,18,04,02,34.20
2010,01,18,04,03,33.30
2010,01,18,04,04,26.40
2010,01,18,04,05,29.10
2010,01,18,04,06,26.80
2010,01,18,04,07,30.80
2010,01,18,04,08,32.40
2010,01,18,04,09,39.90
2010,01,18,04,10,35.20
2010,01,18,04,11,29.40
2010,01,18,04,12,34.40
2010,01,18,04,13,35.90
2010,01,18,04,14,30.70
2010,01,18,04,15,32.80
2010,01,18,04,16,35.80
2010,01,18,04,17,35.30
2010,01,18,04,18,31.90
2010,01,18,04,19,34.10
2010,01,18,04,20,43.10
2010,01,18,04,21,30.90
2010,01,18,04,22,30.70
2010,01,18,04,23,34.70
2010,01,18,04,24,43.60
2010,01,18,04,25,26.40
2010,01,18,04,26,23.30
2010,01,18,04,27,30.00
2010,01,18,04,28,36.30
2010,01,18,04,29,33.70
2010,01,18,04,30,24.80
2010,01,18,04,31,32.50
2010,01,18,04,32,33.30
2010,01,18,04,33,33.00
2010,01,18,04,34,31.10
2010,01,18,04,35,30.20
2010,01,18,04,36,36.60
2010,01,18,04,37,37.20
2010,01,18,04,38,30.10
2010,01,18,04,39,35.00
2010,01,18,04,40,29.20
2010,01,18,04,41,25.70
2010,01,18,04,42,25.40
2010,01,18,04,43,28.80
2010,01,18,04,44,31.20
2010,01,18,04,45,37.20
2010,01,18,04,46,28.80
2010,01,18,04,47,34.00
2010,01,18,04,48,26.00
2010,01,18,04,49,34.60
2010,01,18,04,50,37.30
2010,01,18,04,51,30.00
2010,01,18,04,52,31.10
2010,01,18,04,53,45.60
2010,01,18,04,54,30.50
2010,01,18,04,55,33.20
2010,01,18,04,56,22.40
2010,01,18,04,57,25.10
2010,01,18,04,58,27.20
2010,01,18,04,59,24.90
2010,01,18,05,00,31.70
2010,01,18,05,01,38.10
2010,01,18,05,02,36.10
2010,01,18,05,03,40.70
2010,01,18,05,04,35.90
2010,01,18,05,05,35.10
2010,01,18,05,06,34.50
2010,01,18,05,07,36.10
2010,01,18,05,08,42.30
2010,01,18,05,09,27.10
2010,01,18,05,10,32.40
2010,01,18,05,11,42.40
2010,01,18,05,12,42.10
2010,01,18,05,13,27.80
2010,01,18,05,14,34.60
2010,01,18,05,15,32.40
2010,01,18,05,16,31.10
2010,01,18,05,17,27.90
2010,01,18,05,18,34.20
2010,01,18,05,19,24.60
2010,01,18,05,20,32.60
2010,01,18,05,21,34.70
2010,01,18,05,22,32.00
2010,01,18,05,23,24.20
2010,01,18,05,24,31.10
2010,01,18,05,25,30.00
2010,01,18,05,26,30.60
2010,01,18,05,27,29.30
2010,01,18,05,28,29.40
2010,01,18,05,29,31.30
2010,01,18,05,30,33.10
2010,01,18,05,31,29.30
2010,01,18,05,32,25.90
2010,01,18,05,33,27.90
2010,01,18,05,34,32.70
2010,01,18,05,35,31.60
2010,01,18,05,36,27.60
2010,01,18,05,37,27.70
2010,01,18,05,38,24.10
2010,01,18,05,39,34.40
2010,01,18,05,40,30.30
2010,01,18,05,41,32.60
2010,01,18,05,42,25.90
2010,01,18,05,43,23.50
2010,01,18,05,44,26.00
2010,01,18,05,45,30.40
2010,01,18,05,46,26.40
2010,01,18,05,47,24.20
2010,01,18,05,48,25.40
2010,01,18,05,49,33.40
2010,01,18,05,50,23.60
2010,01,18,05,51,25.80
2010,01,18,05,52,23.90
2010,01,18,05,53,28.30
2010,01,18,05,54,28.70
2010,01,18,05,55,18.60
2010,01,18,05,56,18.90
2010,01,18,05,57,19.50
2010,01,18,05,58,22.20
2010,01,18,05,59,22.90
2010,01,18,06,00,15.50
2010,01,18,06,01,23.90
2010,01,18,06,02,21.70
2010,01,18,06,03,20.20
2010,01,18,06,04,28.60
2010,01,18,06,05,26.50
2010,01,18,06,06,19.90
2010,01,18,06,07,22.40
2010,01,18,06,08,18.70
2010,01,18,06,09,17.40
2010,01,18,06,10,15.80
2010,01,18,06,11,22.80
2010,01,18,06,12,20.80
2010,01,18,06,13,30.80
2010,01,18,06,14,22.80
2010,01,18,06,15,21.70
2010,01,18,06,16,17.40
2010,01,18,06,17,15.40
2010,01,18,06,18,20.60
2010,01,18,06,19,26.30
2010,01,18,06,20,28.50
2010,01,18,06,21,23.40
2010,01,18,06,22,26.40
2010,01,18,06,23,19.40
2010,01,18,06,24,14.80
2010,01,18,06,25,28.80
2010,01,18,06,26,24.60
2010,01,18,06,27,22.30
2010,01,18,06,28,16.20
2010,01,18,06,29,21.70
2010,01,18,06,30,28.30
2010,01,18,06,31,19.00
2010,01,18,06,32,20.70
2010,01,18,06,33,12.90
2010,01,18,06,34,13.60
2010,01,18,06,35,23.60
2010,01,18,06,36,22.80
2010,01,18,06,37,18.30
2010,01,18,06,38,24.60
2010,01,18,06,39,14.30
2010,01,18,06,40,17.20
2010,01,18,06,41,20.80
2010,01,18,06,42,25.80
2010,01,18,06,43,21.60
2010,01,18,06,44,11.90
2010,01,18,06,45,16.50
2010,01,18,06,46,16.90
2010,01,18,06,47,20.60
2010,01,18,06,48,17.80
2010,01,18,06,49,20.60
2010,01,18,06,50,18.40
2010,01,18,06,51,16.50
2010,01,18,06,52,14.80
2010,01,18,06,53,16.70
2010,01,18,06,54,16.80
2010,01,18,06,55,16.40
2010,01,18,06,56,18.10
2010,01,18,06,57,15.70
2010,01,18,06,58,17.80
2010,01,18,06,59,13.50
2010,01,18,07,00,11.60
2010,01,18,07,01,16.30
2010,01,18,07,02,16.10
2010,01,18,07,03,11.80
2010,01,18,07,04,14.30
2010,01,18,07,05,7.00
2010,01,18,07,06,11.80
2010,01,18,07,07,9.00
2010,01,18,07,08,19.10
2010,01,18,07,09,11.90
2010,01,18,07,10,13.80
2010,01,18,07,11,10.40
2010,01,18,07,12,6.90
2010,01,18,07,13,11.10
2010,01,18,07,14,16.20
2010,01,18,07,15,13.10
2010,01,18,07,16,11.50
2010,01,18,07,17,13.80
2010,01,18,07,18,10.70
2010,01,18,07,19,13.50
2010,01,18,07,20,7.10
2010,01,18,07,21,14.80
2010,01,18,07,22,12.50
2010,01,18,07,23,8.80
2010,01,18,07,24,15.50
2010,01,18,07,25,16.00
2010,01,18,07,26,13.30
2010,01,18,07,27,19.20
2010,01,18,07,28,12.90
2010,01,18,07,29,9.20
2010,01,18,07,30,12.10
2010,01,18,07,31,19.80
2010,01,18,07,32,17.80
2010,01,18,07,33,13.10
2010,01,18,07,34,10.30
2010,01,18,07,35,10.10
2010,01,18,07,36,17.10
2010,01,18,07,37,8.50
2010,01,18,07,38,12.30
2010,01,18,07,39,10.70
2010,01,18,07,40,12.50
2010,01,18,07,41,8.80
2010,01,18,07,42,6.20
2010,01,18,07,43,10.20
2010,01,18,07,44,10.20
2010,01,18,07,45,4.40
2010,01,18,07,46,8.70
2010,01,18,07,47,13.30
2010,01,18,07,48,9.20
2010,01,18,07,49,10.50
2010,01,18,07,50,20.60
2010,01,18,07,51,14.00
2010,01,18,07,52,12.40
2010,01,18,07,53,13.90
2010,01,18,07,54,11.20
2010,01,18,07,55,18.10
2010,01,18,07,56,17.70
2010,01,18,07,57,11.10
2010,01,18,07,58,8.20
2010,01,18,07,59,9.20
2010,01,18,08,00,6.70
2010,01,18,08,01,8.60
2010,01,18,08,02,7.50
2010,01,18,08,03,8.90
2010,01,18,08,04,5.40
2010,01,18,08,05,2.90
2010,01,18,08,06,7.10
2010,01,18,08,07,10.10
2010,01,18,08,08,6.30
2010,01,18,08,09,13.30
2010,01,18,08,10,16.20
2010,01,18,08,11,19.00
2010,01,18,08,12,13.90
2010,01,18,08,13,11.80
2010,01,18,08,14,7.20
2010,01,18,08,15,6.90
2010,01,18,08,16,20.20
2010,01,18,08,17,5.90
2010,01,18,08,18,11.50
2010,01,18,08,19,11.80
2010,01,18,08,20,5.30
2010,01,18,08,21,15.80
2010,01,18,08,22,11.80
2010,01,18,08,23,9.50
2010,01,18,08,24,11.50
2010,01,18,08,25,10.30
2010,01,18,08,26,9.80
2010,01,18,08,27,10.30
2010,01,18,08,28,12.50
2010,01,18,08,29,16.20
2010,01,18,08,30,11.90
2010,01,18,08,31,10.30
2010,01,18,08,32,13.60
2010,01,18,08,33,11.70
2010,01,18,08,34,11.80
2010,01,18,08,35,12.40
2010,01,18,08,36,12.70
2010,01,18,08,37,9.30
2010,01,18,08,38,18.50
2010,01,18,08,39,14.60
2010,01,18,08,40,12.50
2010,01,18,08,41,11.50
2010,01,18,08,42,12.10
2010,01,18,08,43,10.60
2010,01,18,08,44,7.80
2010,01,18,08,45,8.20
2010,01,18,08,46,8.60
2010,01,18,08,47,7.50
2010,01,18,08,48,7.20
2010,01,18,08,49,12.00
2010,01,18,08,50,10.80
2010,01,18,08,51,9.30
2010,01,18,08,52,8.10
2010,01,18,08,53,8.00
2010,01,18,08,54,9.90
2010,01,18,08,55,14.10
2010,01,18,08,56,19.50
2010,01,18,08,57,14.90
2010,01,18,08,58,8.30
2010,01,18,08,59,4.80
2010,01,18,09,00,7.70
2010,01,18,09,01,7.30
2010,01,18,09,02,10.80
2010,01,18,09,03,10.20
2010,01,18,09,04,7.70
2010,01,18,09,05,9.20
2010,01,18,09,06,7.80
2010,01,18,09,07,12.30
2010,01,18,09,08,8.10
2010,01,18,09,09,17.00
2010,01,18,09,10,12.10
2010,01,18,09,11,12.90
2010,01,18,09,12,12.10
2010,01,18,09,13,10.00
2010,01,18,09,14,10.40
2010,01,18,09,15,13.30
2010,01,18,09,16,13.90
2010,01,18,09,17,11.50
2010,01,18,09,18,15.40
2010,01,18,09,19,10.50
2010,01,18,09,23,19.80
2010,01,18,09,24,11.50
2010,01,18,09,25,12.60
2010,01,18,09,26,8.00
2010,01,18,09,27,10.30
2010,01,18,09,28,11.50
2010,01,18,09,29,15.60
2010,01,18,09,30,14.20
2010,01,18,09,31,16.00
2010,01,18,09,32,13.60
2010,01,18,09,33,10.50
2010,01,18,09,34,7.30
2010,01,18,09,35,11.30
2010,01,18,09,36,10.90
2010,01,18,09,37,9.20
2010,01,18,09,38,11.10
2010,01,18,09,39,9.00
2010,01,18,09,40,12.20
2010,01,18,09,41,11.30
2010,01,18,09,42,11.00
2010,01,18,09,43,9.10
2010,01,18,09,44,9.70
2010,01,18,09,45,12.30
2010,01,18,09,46,12.50
2010,01,18,09,47,12.40
2010,01,18,09,48,15.70
2010,01,18,09,49,10.60
2010,01,18,09,50,12.30
2010,01,18,09,51,17.90
2010,01,18,09,52,12.70
2010,01,18,09,53,11.00
2010,01,18,09,54,14.70
2010,01,18,09,55,11.40
2010,01,18,09,56,8.10
2010,01,18,09,57,8.90
2010,01,18,09,58,11.80
2010,01,18,09,59,9.50
2010,01,18,10,00,9.50
2010,01,18,10,01,11.30
2010,01,18,10,02,8.30
2010,01,18,10,03,7.00
2010,01,18,10,04,8.70
2010,01,18,10,05,12.00
2010,01,18,10,06,7.30
2010,01,18,10,07,5.60
2010,01,18,10,08,2.00
2010,01,18,10,09,3.40
2010,01,18,10,10,2.60
2010,01,18,10,11,3.70
2010,01,18,10,12,3.80
2010,01,18,10,13,5.10
2010,01,18,10,14,3.40
2010,01,18,10,15,8.70
2010,01,18,10,16,11.20
2010,01,18,10,17,9.80
2010,01,18,10,18,7.80
2010,01,18,10,19,6.00
2010,01,18,10,20,6.70
2010,01,18,10,21,3.70
2010,01,18,10,22,4.70
2010,01,18,10,23,8.60
2010,01,18,10,24,7.00
2010,01,18,10,25,7.20
2010,01,18,10,26,7.50
2010,01,18,10,27,10.80
2010,01,18,10,28,4.80
2010,01,18,10,29,4.70
2010,01,18,10,30,4.70
2010,01,18,10,31,5.30
2010,01,18,10,32,4.40
2010,01,18,10,33,0.50
2010,01,18,10,34,0.30
2010,01,18,10,35,1.40
2010,01,18,10,36,0.10
2010,01,18,10,37,0.00
2010,01,18,10,38,1.00
2010,01,18,10,39,0.00
2010,01,18,10,40,0.10
2010,01,18,10,41,0.10
2010,01,18,10,42,0.00
2010,01,18,10,43,0.00
2010,01,18,10,44,0.40
2010,01,18,10,45,0.00
2010,01,18,10,46,0.00
2010,01,18,10,47,0.40
2010,01,18,10,48,0.90
2010,01,18,10,49,0.10
2010,01,18,10,50,0.20
2010,01,18,10,51,1.00
2010,01,18,10,52,1.70
2010,01,18,10,53,0.90
2010,01,18,10,54,0.30
2010,01,18,10,55,0.90
2010,01,18,10,56,0.50
2010,01,18,10,57,1.40
2010,01,18,10,58,0.00
2010,01,18,10,59,0.00
2010,01,18,11,00,0.50
2010,01,18,11,01,0.40
2010,01,18,11,02,0.10
2010,01,18,11,03,1.00
2010,01,18,11,04,0.80
2010,01,18,11,05,0.00
2010,01,18,11,06,0.00
2010,01,18,11,07,0.50
2010,01,18,11,08,0.90
2010,01,18,11,09,1.90
2010,01,18,11,10,0.80
2010,01,18,11,11,0.20
2010,01,18,11,12,1.10
2010,01,18,11,13,1.70
2010,01,18,11,14,0.50
2010,01,18,11,15,1.30
2010,01,18,11,16,0.00
2010,01,18,11,17,0.10
2010,01,18,11,18,0.60
2010,01,18,11,19,3.10
2010,01,18,11,20,1.50
2010,01,18,11,21,1.50
2010,01,18,11,22,0.10
2010,01,18,11,23,0.00
2010,01,18,11,24,0.00
2010,01,18,11,25,0.00
2010,01,18,11,26,2.00
2010,01,18,11,27,2.10
2010,01,18,11,28,0.00
2010,01,18,11,29,0.30
2010,01,18,11,30,0.00
2010,01,18,11,31,0.20
2010,01,18,11,32,1.20
2010,01,18,11,33,1.00
2010,01,18,11,34,0.90
2010,01,18,11,35,3.60
2010,01,18,11,36,3.20
2010,01,18,11,37,2.40
2010,01,18,11,38,0.40
2010,01,18,11,39,1.00
2010,01,18,11,40,3.10
2010,01,18,11,41,0.20
2010,01,18,11,42,1.00
2010,01,18,11,43,0.20
2010,01,18,11,44,0.00
2010,01,18,11,45,0.10
2010,01,18,11,46,0.10
2010,01,18,11,47,0.00
2010,01,18,11,48,0.00
2010,01,18,11,49,0.20
2010,01,18,11,50,1.90
2010,01,18,11,51,1.10
2010,01,18,11,52,2.30
2010,01,18,11,53,2.40
2010,01,18,11,54,0.50
2010,01,18,11,55,1.50
2010,01,18,11,56,1.50
2010,01,18,11,57,0.30
2010,01,18,11,58,0.50
2010,01,18,11,59,1.80
2010,01,18,12,00,2.70
2010,01,18,12,01,2.90
2010,01,18,12,02,0.10
2010,01,18,12,03,1.50
2010,01,18,12,04,0.00
2010,01,18,12,05,0.40
2010,01,18,12,06,0.20
2010,01,18,12,07,4.30
2010,01,18,12,08,5.00
2010,01,18,12,09,4.80
2010,01,18,12,10,7.40
2010,01,18,12,11,3.20
2010,01,18,12,12,0.90
2010,01,18,12,13,1.10
2010,01,18,12,14,4.60
2010,01,18,12,15,0.70
2010,01,18,12,16,2.40
2010,01,18,12,17,7.20
2010,01,18,12,18,1.20
2010,01,18,12,19,2.60
2010,01,18,12,20,1.90
2010,01,18,12,21,2.10
2010,01,18,12,22,2.70
2010,01,18,12,23,5.50
2010,01,18,12,24,4.90
2010,01,18,12,25,2.90
2010,01,18,12,26,2.00
2010,01,18,12,27,1.40
2010,01,18,12,28,0.20
2010,01,18,12,29,0.30
2010,01,18,12,30,4.50
2010,01,18,12,31,6.20
2010,01,18,12,32,4.20
2010,01,18,12,33,4.20
2010,01,18,12,34,0.50
2010,01,18,12,35,2.10
2010,01,18,12,36,3.40
2010,01,18,12,37,4.30
2010,01,18,12,38,5.10
2010,01,18,12,39,0.40
2010,01,18,12,40,0.70
2010,01,18,12,41,3.80
2010,01,18,12,42,1.10
2010,01,18,12,43,2.90
2010,01,18,12,44,1.80
2010,01,18,12,45,2.80
2010,01,18,12,46,6.40
2010,01,18,12,47,8.60
2010,01,18,12,48,4.20
2010,01,18,12,49,2.80
2010,01,18,12,50,3.80
2010,01,18,12,51,7.30
2010,01,18,12,52,2.40
2010,01,18,12,53,4.20
2010,01,18,12,54,3.80
2010,01,18,12,55,1.60
2010,01,18,12,56,6.90
2010,01,18,12,57,4.80
2010,01,18,12,58,6.40
2010,01,18,12,59,2.70
2010,01,18,13,00,10.30
2010,01,18,13,01,4.30
2010,01,18,13,02,4.30
2010,01,18,13,03,8.40
2010,01,18,13,04,8.80
2010,01,18,13,05,3.20
2010,01,18,13,06,6.00
2010,01,18,13,07,2.10
2010,01,18,13,08,1.90
2010,01,18,13,09,1.80
2010,01,18,13,10,4.10
2010,01,18,13,11,3.60
2010,01,18,13,12,3.20
2010,01,18,13,13,3.60
2010,01,18,13,14,4.70
2010,01,18,13,15,1.80
2010,01,18,13,16,0.60
2010,01,18,13,17,3.60
2010,01,18,13,18,9.70
2010,01,18,13,19,2.90
2010,01,18,13,20,0.80
2010,01,18,13,21,0.00
2010,01,18,13,22,1.20
2010,01,18,13,23,6.90
2010,01,18,13,24,6.70
2010,01,18,13,25,5.00
2010,01,18,13,26,2.40
2010,01,18,13,27,6.60
2010,01,18,13,28,4.00
2010,01,18,13,29,5.30
2010,01,18,13,30,2.80
2010,01,18,13,31,4.00
2010,01,18,13,32,3.40
2010,01,18,13,33,0.10
2010,01,18,13,34,0.00
2010,01,18,13,35,0.20
2010,01,18,13,36,0.50
2010,01,18,13,37,5.30
2010,01,18,13,38,2.90
2010,01,18,13,39,2.20
2010,01,18,13,40,5.40
2010,01,18,13,41,2.10
2010,01,18,13,42,0.30
2010,01,18,13,43,0.10
2010,01,18,13,44,0.10
2010,01,18,13,45,0.10
2010,01,18,13,46,0.20
2010,01,18,13,47,1.00
2010,01,18,13,48,0.20
2010,01,18,13,49,1.10
2010,01,18,13,50,0.40
2010,01,18,13,51,1.20
2010,01,18,13,52,2.30
2010,01,18,13,53,2.80
2010,01,18,13,54,1.20
2010,01,18,13,55,0.00
2010,01,18,13,56,0.00
2010,01,18,13,57,0.30
2010,01,18,13,58,0.50
2010,01,18,13,59,1.70
2010,01,18,14,00,2.90
2010,01,18,14,01,0.40
2010,01,18,14,02,1.20
2010,01,18,14,03,4.80
2010,01,18,14,04,2.10
2010,01,18,14,05,0.50
2010,01,18,14,06,0.70
2010,01,18,14,07,1.90
2010,01,18,14,08,1.50
2010,01,18,14,09,1.20
2010,01,18,14,10,0.40
2010,01,18,14,11,1.60
2010,01,18,14,12,3.20
2010,01,18,14,13,2.30
2010,01,18,14,14,7.50
2010,01,18,14,15,3.50
2010,01,18,14,16,3.70
2010,01,18,14,17,7.10
2010,01,18,14,18,3.60
2010,01,18,14,19,1.10
2010,01,18,14,20,2.40
2010,01,18,14,21,6.10
2010,01,18,14,22,2.60
2010,01,18,14,23,1.80
2010,01,18,14,24,2.00
2010,01,18,14,25,1.10
2010,01,18,14,26,4.40
2010,01,18,14,27,4.40
2010,01,18,14,28,4.00
2010,01,18,14,29,1.50
2010,01,18,14,30,9.10
2010,01,18,14,31,5.90
2010,01,18,14,32,5.70
2010,01,18,14,33,7.20
2010,01,18,14,34,6.20
2010,01,18,14,35,7.80
2010,01,18,14,36,9.70
2010,01,18,14,37,5.00
2010,01,18,14,38,7.80
2010,01,18,14,39,7.10
2010,01,18,14,40,7.30
2010,01,18,14,41,5.00
2010,01,18,14,42,4.20
2010,01,18,14,43,6.20
2010,01,18,14,44,4.20
2010,01,18,14,45,4.20
2010,01,18,14,46,2.20
2010,01,18,14,47,3.20
2010,01,18,14,48,2.90
2010,01,18,14,49,2.10
2010,01,18,14,50,4.70
2010,01,18,14,51,3.40
2010,01,18,14,52,4.90
2010,01,18,14,53,6.30
2010,01,18,14,54,8.00
2010,01,18,14,55,3.80
2010,01,18,14,56,4.20
2010,01,18,14,57,4.50
2010,01,18,14,58,5.60
2010,01,18,14,59,2.60
2010,01,18,15,00,1.20
2010,01,18,15,01,0.80
2010,01,18,15,02,1.30
2010,01,18,15,03,1.70
2010,01,18,15,04,2.30
2010,01,18,15,05,1.90
2010,01,18,15,06,0.80
2010,01,18,15,07,0.20
2010,01,18,15,08,0.20
2010,01,18,15,09,0.90
2010,01,18,15,10,0.40
2010,01,18,15,11,2.00
2010,01,18,15,12,1.10
2010,01,18,15,13,0.90
2010,01,18,15,14,1.10
2010,01,18,15,15,0.00
2010,01,18,15,16,1.00
2010,01,18,15,17,0.40
2010,01,18,15,18,0.80
2010,01,18,15,19,1.50
2010,01,18,15,20,0.20
2010,01,18,15,21,2.80
2010,01,18,15,22,4.40
2010,01,18,15,23,3.00
2010,01,18,15,24,2.40
2010,01,18,15,25,1.80
2010,01,18,15,26,2.70
2010,01,18,15,27,1.70
2010,01,18,15,28,0.10
2010,01,18,15,29,0.00
2010,01,18,15,30,0.00
2010,01,18,15,31,0.00
2010,01,18,15,32,0.00
2010,01,18,15,33,0.00
2010,01,18,15,34,0.00
2010,01,18,15,35,0.20
2010,01,18,15,36,0.00
2010,01,18,15,37,0.20
2010,01,18,15,38,0.80
2010,01,18,15,39,1.20
2010,01,18,15,40,0.00
2010,01,18,15,41,0.20
2010,01,18,15,42,0.10
2010,01,18,15,43,1.40
2010,01,18,15,44,0.60
2010,01,18,15,45,1.50
2010,01,18,15,46,0.20
2010,01,18,15,47,0.00
2010,01,18,15,48,0.80
2010,01,18,15,49,1.40
2010,01,18,15,50,3.00
2010,01,18,15,51,2.70
2010,01,18,15,52,0.30
2010,01,18,15,53,0.30
2010,01,18,15,54,0.10
2010,01,18,15,55,0.20
2010,01,18,15,56,0.80
2010,01,18,15,57,0.10
2010,01,18,15,58,3.70
2010,01,18,15,59,6.50
2010,01,18,16,00,5.00
2010,01,18,16,01,1.10
2010,01,18,16,02,3.00
2010,01,18,16,03,6.80
2010,01,18,16,04,2.50
2010,01,18,16,05,1.40
2010,01,18,16,06,1.50
2010,01,18,16,07,2.50
2010,01,18,16,08,4.40
2010,01,18,16,09,1.90
2010,01,18,16,10,3.70
2010,01,18,16,11,7.70
2010,01,18,16,12,5.00
2010,01,18,16,13,3.40
2010,01,18,16,14,4.50
2010,01,18,16,15,3.60
2010,01,18,16,16,8.10
2010,01,18,16,17,4.90
2010,01,18,16,18,4.90
2010,01,18,16,19,5.00
2010,01,18,16,20,6.00
2010,01,18,16,21,4.80
2010,01,18,16,22,5.10
2010,01,18,16,23,5.30
2010,01,18,16,24,6.40
2010,01,18,16,25,3.40
2010,01,18,16,26,4.30
2010,01,18,16,27,5.60
2010,01,18,16,28,5.00
2010,01,18,16,29,6.10
2010,01,18,16,30,6.40
2010,01,18,16,31,6.40
2010,01,18,16,32,5.00
2010,01,18,16,33,5.90
2010,01,18,16,34,6.40
2010,01,18,16,35,4.20
2010,01,18,16,36,6.70
2010,01,18,16,37,3.10
2010,01,18,16,38,3.80
2010,01,18,16,39,6.30
2010,01,18,16,40,7.60
2010,01,18,16,41,3.40
2010,01,18,16,42,11.20
2010,01,18,16,43,6.30
2010,01,18,16,44,1.70
2010,01,18,16,45,1.60
2010,01,18,16,46,3.90
2010,01,18,16,47,5.20
2010,01,18,16,48,4.20
2010,01,18,16,49,3.60
2010,01,18,16,50,5.00
2010,01,18,16,51,3.40
2010,01,18,16,52,2.70
2010,01,18,16,53,7.50
2010,01,18,16,54,4.50
2010,01,18,16,55,4.40
2010,01,18,16,56,4.00
2010,01,18,16,57,4.70
2010,01,18,16,58,4.80
2010,01,18,16,59,4.00
2010,01,18,17,00,3.20
2010,01,18,17,01,2.00
2010,01,18,17,02,8.60
2010,01,18,17,03,7.10
2010,01,18,17,04,5.90
2010,01,18,17,05,5.70
2010,01,18,17,06,5.50
2010,01,18,17,07,3.70
2010,01,18,17,08,5.10
2010,01,18,17,09,10.20
2010,01,18,17,10,6.40
2010,01,18,17,11,9.10
2010,01,18,17,12,4.50
2010,01,18,17,13,4.70
2010,01,18,17,14,6.10
2010,01,18,17,15,8.00
2010,01,18,17,16,6.90
2010,01,18,17,17,5.90
2010,01,18,17,18,5.10
2010,01,18,17,19,4.60
2010,01,18,17,20,12.00
2010,01,18,17,21,7.00
2010,01,18,17,22,5.90
2010,01,18,17,23,7.20
2010,01,18,17,24,8.70
2010,01,18,17,25,7.60
2010,01,18,17,26,7.20
2010,01,18,17,27,7.80
2010,01,18,17,28,10.90
2010,01,18,17,29,6.10
2010,01,18,17,30,7.50
2010,01,18,17,31,10.20
2010,01,18,17,32,8.80
2010,01,18,17,33,13.60
2010,01,18,17,34,6.30
2010,01,18,17,35,8.60
2010,01,18,17,36,12.50
2010,01,18,17,37,8.30
2010,01,18,17,38,8.60
2010,01,18,17,39,7.20
2010,01,18,17,40,8.10
2010,01,18,17,41,4.50
2010,01,18,17,42,4.70
2010,01,18,17,43,5.10
2010,01,18,17,44,5.50